Location: Ladysmith
(45.4630°N, 91.1040°W)
Time: 07:52:01
(UTC-06:00)

Amateur Radio Satellites - All Passes

Search period start: 24 November 2014 07:22
Search period end: 25 November 2014 07:22
Location: Ladysmith, 45.4630°N, 91.1040°W

Satellite Date Start Highest point End Downlink Frequencies (MHz)
Time Altitude Azimuth
GONETS M04 24 Nov 07:34:52 07:42:46 39° 85° (E) 07:50:42
CUBESAT XI-V 24 Nov 07:42:50 07:44:01 11° 273° (W) 07:45:11 437.345
SEEDS 24 Nov 07:54:14 07:55:04 11° 88° (E) 07:55:53 437.485
HO-68 24 Nov 08:01:09 08:06:54 25° 92° (E) 08:12:36 435.675
BRITE-PL 24 Nov 08:01:56 08:04:02 14° 90° (E) 08:06:08 437.365/2234.400
Cubesat XI-IV 24 Nov 08:10:55 08:14:25 18° 302° (WNW) 08:17:55 437.490
AIST 1 24 Nov 08:11:59 08:14:45 17° 275° (W) 08:17:30
AAUSAT CUBESAT 2 24 Nov 08:14:07 08:16:11 13° 89° (E) 08:18:15 437.432
CANX-2 24 Nov 08:17:08 08:20:37 24° 94° (E) 08:24:06 2200.000
COMPASS 1 24 Nov 08:27:03 08:30:16 21° 93° (E) 08:33:29 437.405
UNISAT 6 24 Nov 08:27:49 08:29:38 13° 60° (ENE) 08:31:28 437.425
QB50P1 24 Nov 08:39:43 08:41:16 12° 59° (ENE) 08:42:50 145.935-145.965
DOVE 4 24 Nov 08:47:47 08:51:08 23° 94° (E) 08:54:31 437.250
CUTE 1.7 & AOD 2 24 Nov 08:51:36 08:55:47 50° 99° (E) 08:59:57 437.475
ANTELSAT 24 Nov 08:54:33 08:57:53 23° 65° (ENE) 09:01:14 437.575/2403.000
BUGSAT 1 24 Nov 08:59:42 09:02:16 16° 62° (ENE) 09:04:50 437.445
POPSAT HIP 1 24 Nov 09:02:29 09:05:33 20° 64° (ENE) 09:08:38 437.405
UKube-1 24 Nov 09:09:29 09:12:56 23° 94° (E) 09:16:22 .
FUNcube-1 24 Nov 09:10:31 09:12:08 12° 89° (E) 09:13:46 145.935
GOMX 1 24 Nov 09:20:08 09:24:17 68° 102° (ESE) 09:28:28 467.674
Oscar 11 24 Nov 09:21:52 09:25:53 36° 97° (E) 09:29:54 145.826/435.025
CUBEBUG 2 24 Nov 09:25:44 09:29:09 24° 94° (E) 09:32:37 437.445
SEEDS 24 Nov 09:27:10 09:31:27 78° 285° (WNW) 09:35:43 437.485
UWE-3 24 Nov 09:30:10 09:33:32 23° 94° (E) 09:36:57 435.000/436.395/437.385
GONETS M04 24 Nov 09:30:49 09:39:20 52° 286° (WNW) 09:47:57
POLYITAN 1 24 Nov 09:33:43 09:37:42 40° 70° (ENE) 09:41:41 437.675
QB50P2 24 Nov 09:36:29 09:40:31 42° 70° (ENE) 09:44:33 145.880/145.840
CINEMA 3 24 Nov 09:37:52 09:41:57 48° 100° (E) 09:46:06 145.822/145.860
BRITE-PL 24 Nov 09:38:54 09:42:59 54° 287° (WNW) 09:47:01 437.365/2234.400
DX 1 24 Nov 09:42:30 09:46:45 51° 100° (E) 09:50:58 434.975-435.025
DUCHIFAT 1 24 Nov 09:43:44 09:47:51 49° 72° (ENE) 09:51:58 145.980
HO-68 24 Nov 09:48:03 09:55:11 69° 291° (WNW) 10:02:16 435.675
AAUSAT CUBESAT 2 24 Nov 09:48:05 09:52:16 61° 287° (WNW) 09:56:27 437.432
TIGRISAT 24 Nov 09:49:02 09:53:18 80° 75° (ENE) 09:57:34 435.000
CANX-2 24 Nov 09:52:45 09:56:38 34° 291° (WNW) 10:00:32 2200.000
UNISAT 6 24 Nov 10:01:36 10:05:52 75° 257° (WSW) 10:10:09 437.425
COMPASS 1 24 Nov 10:02:12 10:06:10 39° 290° (WNW) 10:10:06 437.405
NANOSAT C BR1 24 Nov 10:02:40 10:06:55 80° 75° (ENE) 10:11:12 145.865
DELFI C3 24 Nov 10:03:07 10:07:17 86° 102° (ESE) 10:11:26 145.870
VELOX 1 24 Nov 10:03:57 10:07:47 28° 96° (E) 10:11:36 145.980
HUMSAT D 24 Nov 10:07:20 10:11:00 29° 96° (E) 10:14:40 437.325/437.525
ZACube-1 24 Nov 10:09:09 10:13:16 50° 100° (E) 10:17:26 437.345
50 SAT 24 Nov 10:09:21 10:12:46 25° 95° (E) 10:16:10 437.505
QB50P1 24 Nov 10:12:17 10:16:33 81° 257° (WSW) 10:20:50 145.935-145.965
DOVE 4 24 Nov 10:25:17 10:29:00 32° 291° (WNW) 10:32:46 437.250
CUTE 1.7 & AOD 2 24 Nov 10:28:29 10:31:22 18° 297° (WNW) 10:34:14 437.475
AISAT 24 Nov 10:28:40 10:33:00 51° 100° (E) 10:37:18 437.250
ANTELSAT 24 Nov 10:30:33 10:34:31 37° 262° (W) 10:38:30 437.575/2403.000
BUGSAT 1 24 Nov 10:33:09 10:37:21 57° 259° (W) 10:41:33 437.445
POPSAT HIP 1 24 Nov 10:37:06 10:41:11 44° 261° (W) 10:45:16 437.405
FUNcube-1 24 Nov 10:44:46 10:48:57 68° 286° (WNW) 10:53:11 145.935
UKube-1 24 Nov 10:45:13 10:49:13 37° 291° (WNW) 10:53:12 .
CUBEBUG 1 24 Nov 10:49:02 10:52:57 31° 96° (E) 10:56:49 437.445
SO-50 24 Nov 10:54:18 10:57:40 18° 33° (NNE) 11:01:03 436.795
Oscar 11 24 Nov 10:58:24 11:01:54 24° 294° (WNW) 11:05:24 145.826/435.025
GOMX 1 24 Nov 11:00:09 11:01:55 13° 299° (WNW) 11:03:41 467.674
CUBEBUG 2 24 Nov 11:02:09 11:05:56 33° 291° (WNW) 11:09:47 437.445
UWE-3 24 Nov 11:06:21 11:10:11 35° 291° (WNW) 11:14:03 435.000/436.395/437.385
POLYITAN 1 24 Nov 11:10:37 11:13:49 20° 267° (W) 11:17:01 437.675
QB50P2 24 Nov 11:13:34 11:16:38 19° 267° (W) 11:19:43 145.880/145.840
CINEMA 3 24 Nov 11:16:06 11:18:51 17° 296° (WNW) 11:21:38 145.822/145.860
DX 1 24 Nov 11:19:40 11:22:38 18° 298° (WNW) 11:25:35 434.975-435.025
DUCHIFAT 1 24 Nov 11:21:18 11:24:01 16° 269° (W) 11:26:44 145.980
Oscar 19 24 Nov 11:22:00 11:25:28 19° 60° (ENE) 11:28:57 437.125/150
ESTCUBE 1 24 Nov 11:31:48 11:36:23 90° 104° (ESE) 11:40:55 437.505/2401.250
GONETS M04 24 Nov 11:35:55 11:38:46 12° 312° (NW) 11:41:38
HO-68 24 Nov 11:37:33 11:41:38 16° 312° (NW) 11:45:43 435.675
VELOX 1 24 Nov 11:40:28 11:44:23 31° 293° (WNW) 11:48:15 145.980
DELFI C3 24 Nov 11:41:03 11:41:57 11° 301° (WNW) 11:42:50 145.870
NANOSAT C BR1 24 Nov 11:42:55 11:43:22 10° 272° (W) 11:43:49 145.865
HUMSAT D 24 Nov 11:43:15 11:46:45 26° 293° (WNW) 11:50:15 437.325/437.525
50 SAT 24 Nov 11:44:34 11:48:05 29° 292° (WNW) 11:51:36 437.505
ZACube-1 24 Nov 11:46:34 11:49:19 17° 297° (WNW) 11:52:05 437.345
YUBILEINY 24 Nov 11:52:29 11:58:32 20° 58° (ENE) 12:04:31 435.215
AISAT 24 Nov 12:06:14 12:09:16 18° 298° (WNW) 12:12:18 437.250
ITAMSAT 1 24 Nov 12:10:29 12:14:20 21° 61° (ENE) 12:18:12 435.822/435.867
ITUPSAT 1 24 Nov 12:14:29 12:15:36 11° 87° (E) 12:16:44 437.325
TISAT 1 24 Nov 12:16:23 12:20:37 70° 102° (ESE) 12:24:48 437.305
SPROUT 24 Nov 12:20:22 12:24:39 69° 102° (ESE) 12:28:54 437.525
SWISSCUBE 24 Nov 12:24:40 12:27:32 16° 90° (E) 12:30:23 437.505
CUBEBUG 1 24 Nov 12:25:32 12:29:15 28° 294° (WNW) 12:32:56 437.445
AUBIESAT-1 24 Nov 12:27:26 12:30:45 18° 95° (E) 12:34:02 437.475
M-CUBED/EXP-1 PRIME 24 Nov 12:31:02 12:34:46 21° 97° (E) 12:38:27 437.505
Gurwin Techsat 1B 24 Nov 12:32:08 12:35:52 20° 60° (ENE) 12:39:36 435.225
SO-50 24 Nov 12:34:05 12:38:59 81° 53° (NE) 12:43:53 436.795
AO-7 24 Nov 12:41:41 12:45:43 15° 39° (NE) 12:49:45 29.400- 29.500
BEESAT 24 Nov 12:55:12 12:59:21 28° 95° (E) 13:03:27 436.000
Oscar 19 24 Nov 12:59:14 13:04:18 66° 258° (WSW) 13:09:25 437.125/150
CUSAT 1 24 Nov 12:59:51 13:02:29 45° 98° (E) 13:05:00 437.405
ESTCUBE 1 24 Nov 13:10:51 13:12:33 12° 302° (WNW) 13:14:15 437.505/2401.250
DANDE 24 Nov 13:17:39 13:20:28 72° 100° (E) 13:23:04 436.750
YUBILEINY 24 Nov 13:48:04 13:56:51 83° 81° (E) 14:05:32 435.215
ITAMSAT 1 24 Nov 13:48:16 13:53:25 59° 259° (WSW) 13:58:35 435.822/435.867
ITUPSAT 1 24 Nov 13:49:20 13:54:12 90° 104° (ESE) 13:59:00 437.325
KKS-1 24 Nov 13:50:59 13:54:26 22° 93° (E) 13:57:52 437.445
TISAT 1 24 Nov 13:53:56 13:55:55 13° 300° (WNW) 13:57:53 437.305
SPROUT 24 Nov 13:58:04 14:00:13 14° 300° (WNW) 14:02:22 437.525
SWISSCUBE 24 Nov 14:01:05 14:05:52 65° 288° (WNW) 14:10:35 437.505
AUBIESAT-1 24 Nov 14:01:14 14:06:07 64° 293° (WNW) 14:10:55 437.475
JAS-2 24 Nov 14:01:32 14:04:22 12° 45° (NE) 14:07:12 435.910
M-CUBED/EXP-1 PRIME 24 Nov 14:05:15 14:10:04 55° 294° (WNW) 14:14:51 437.505
HORYU 2 24 Nov 14:06:57 14:11:16 56° 72° (ENE) 14:15:38 437.375
Gurwin Techsat 1B 24 Nov 14:10:03 14:15:19 66° 258° (WSW) 14:20:38 435.225
SO-50 24 Nov 14:16:11 14:18:56 15° 251° (WSW) 14:21:41 436.795
RS-15 24 Nov 14:21:07 14:26:54 16° 96° (E) 14:32:38 29.354- 29.394
VERMONT LUNAR 24 Nov 14:28:31 14:29:10 10° 149° (SSE) 14:29:49 437.305
AO-7 24 Nov 14:28:43 14:36:38 52° 62° (ENE) 14:44:37 29.400- 29.500
BEESAT 24 Nov 14:32:52 14:37:15 36° 293° (WNW) 14:41:35 436.000
STARS 24 Nov 14:49:50 14:54:11 60° 101° (ESE) 14:58:31 437.465
MaSat-1 24 Nov 15:16:24 15:19:13 37° 114° (ESE) 15:21:48 437.345
KKS-1 24 Nov 15:27:05 15:31:15 40° 291° (WNW) 15:35:23 437.445
ITUPSAT 1 24 Nov 15:29:11 15:31:22 13° 303° (WNW) 15:33:33 437.325
O/OREOS (USA 219) 24 Nov 15:33:16 15:37:40 55° 62° (ENE) 15:42:04 437.305
AUBIESAT-1 24 Nov 15:38:46 15:40:11 11° 310° (NW) 15:41:36 437.475
JAS-2 24 Nov 15:40:18 15:47:33 48° 66° (ENE) 15:54:59 435.910
HORYU 2 24 Nov 15:45:38 15:48:19 16° 269° (W) 15:51:01 437.375
PHONESAT 2.4 24 Nov 15:46:17 15:49:08 21° 159° (SSE) 15:52:00 2401.200-2431.200
YUBILEINY 24 Nov 15:46:20 15:52:32 22° 282° (WNW) 15:58:43 435.215
VERMONT LUNAR 24 Nov 16:03:48 16:06:56 28° 165° (SSE) 16:10:06 437.305
Cubesat XI-IV 24 Nov 16:15:32 16:19:40 23° 61° (ENE) 16:23:49 437.490
MOZHAYETS 4 24 Nov 16:19:45 16:23:35 25° 93° (E) 16:27:24
AO-7 24 Nov 16:21:58 16:29:36 40° 262° (W) 16:37:20 29.400- 29.500
RS-15 24 Nov 16:26:11 16:37:00 70° 118° (ESE) 16:47:51 29.354- 29.394
STARS 24 Nov 16:27:32 16:30:14 16° 299° (WNW) 16:32:55 437.465
MaSat-1 24 Nov 16:52:56 16:53:56 11° 309° (NW) 16:54:53 437.345
CUTE-I 24 Nov 16:56:09 17:01:17 48° 69° (ENE) 17:06:25 437.470
O/OREOS (USA 219) 24 Nov 17:13:49 17:16:37 16° 260° (W) 17:19:24 437.305
PHONESAT 2.4 24 Nov 17:23:59 17:27:27 37° 176° (S) 17:30:55 2401.200-2431.200
JAS-2 24 Nov 17:25:25 17:32:34 43° 265° (W) 17:40:00 435.910
VERMONT LUNAR 24 Nov 17:41:38 17:45:01 37° 182° (S) 17:48:25 437.305
GONETS M04 24 Nov 17:42:07 17:48:42 22° 59° (ENE) 17:55:12
STRAND 1 24 Nov 17:49:42 17:52:52 16° 90° (E) 17:56:00 437.568
Cubesat XI-IV 24 Nov 17:54:07 17:59:23 56° 259° (W) 18:04:41 437.490
MOZHAYETS 4 24 Nov 17:56:36 18:00:55 38° 291° (WNW) 18:05:14
CUBESAT XI-V 24 Nov 17:56:55 18:00:17 19° 91° (E) 18:03:36 437.345
PRISM 24 Nov 18:06:26 18:10:38 56° 101° (E) 18:14:47 437.425
HO-68 24 Nov 18:32:40 18:38:22 26° 55° (NE) 18:44:04 435.675
CUTE-I 24 Nov 18:37:11 18:41:34 25° 266° (W) 18:45:58 437.470
RS-15 24 Nov 18:39:47 18:50:05 45° 325° (NW) 19:00:34 29.354- 29.394
SEEDS 24 Nov 18:49:26 18:50:40 11° 59° (ENE) 18:51:54 437.485
PCSat 24 Nov 18:54:50 18:58:37 20° 106° (ESE) 19:02:24 145.827
GOMX 1 24 Nov 18:55:37 18:57:30 12° 60° (ENE) 18:59:22 467.674
PHONESAT 2.4 24 Nov 19:02:32 19:05:51 31° 193° (SSW) 19:09:10 2401.200-2431.200
AIST 1 24 Nov 19:05:39 19:09:17 26° 89° (E) 19:12:58
AAUSAT CUBESAT 2 24 Nov 19:08:29 19:10:30 13° 61° (ENE) 19:12:31 437.432
CANX-2 24 Nov 19:12:53 19:16:13 23° 66° (ENE) 19:19:36 2200.000
BRITE-PL 24 Nov 19:14:09 19:18:11 26° 67° (ENE) 19:21:59 437.365/2234.400
VERMONT LUNAR 24 Nov 19:20:08 19:23:03 23° 199° (SSW) 19:25:58 437.305
COMPASS 1 24 Nov 19:21:31 19:24:34 20° 64° (ENE) 19:27:37 437.405
STRAND 1 24 Nov 19:27:28 19:32:34 68° 288° (WNW) 19:37:36 437.568
CUBESAT XI-V 24 Nov 19:33:29 19:38:01 49° 289° (WNW) 19:42:29 437.345
GONETS M04 24 Nov 19:37:57 19:46:51 90° 83° (E) 19:55:39
BEESAT 3 24 Nov 19:38:34 19:41:18 17° 111° (ESE) 19:44:04 437.485
PRISM 24 Nov 19:43:09 19:45:46 16° 299° (WNW) 19:48:21 437.425
CUTE 1.7 & AOD 2 24 Nov 19:46:54 19:50:57 47° 72° (ENE) 19:55:01 437.475
BEESAT 2 24 Nov 19:52:15 19:55:25 22° 113° (ESE) 19:58:38 435.950
DOVE 4 24 Nov 19:55:41 19:59:48 33° 69° (ENE) 20:03:44 437.250
UKube-1 24 Nov 20:06:53 20:10:33 27° 66° (ENE) 20:14:15 .
FUNcube-1 24 Nov 20:09:15 20:11:22 14° 61° (ENE) 20:13:29 145.935
HO-68 24 Nov 20:18:15 20:25:26 74° 255° (WSW) 20:32:40 435.675
Oscar 11 24 Nov 20:18:57 20:22:54 37° 69° (ENE) 20:26:53 145.826/435.025
AIST 2 24 Nov 20:20:06 20:23:20 22° 113° (ESE) 20:26:37 435.215
SEEDS 24 Nov 20:21:40 20:25:51 84° 257° (WSW) 20:30:06 437.485
CUBEBUG 2 24 Nov 20:26:44 20:30:19 27° 67° (ENE) 20:33:50 437.445
UWE-3 24 Nov 20:30:07 20:33:35 25° 67° (ENE) 20:37:02 435.000/436.395/437.385
GOMX 1 24 Nov 20:30:16 20:35:06 85° 257° (WSW) 20:39:37 467.674
PCSat 24 Nov 20:36:05 20:41:28 68° 305° (NW) 20:46:55 145.827
DX 1 24 Nov 20:40:12 20:44:31 60° 72° (ENE) 20:48:51 434.975-435.025
AAUSAT CUBESAT 2 24 Nov 20:41:32 20:45:40 67° 259° (WSW) 20:49:50 437.432
CINEMA 3 24 Nov 20:42:03 20:46:23 60° 74° (ENE) 20:50:34 145.822/145.860
PHONESAT 2.4 24 Nov 20:42:19 20:43:59 13° 209° (SSW) 20:45:39 2401.200-2431.200
AIST 1 24 Nov 20:42:57 20:46:51 31° 287° (WNW) 20:50:48
CANX-2 24 Nov 20:48:09 20:52:00 35° 263° (W) 20:55:54 2200.000
BRITE-PL 24 Nov 20:51:48 20:56:33 40° 262° (W) 21:00:59 437.365/2234.400
DELFI C3 24 Nov 20:54:01 20:58:04 73° 75° (ENE) 21:02:10 145.870
COMPASS 1 24 Nov 20:56:06 21:00:02 41° 262° (W) 21:04:01 437.405
RS-15 24 Nov 20:57:08 21:06:09 28° 358° (N) 21:15:23 29.354- 29.394
ESTCUBE 1 24 Nov 20:59:35 21:01:55 14° 59° (ENE) 21:04:15 437.505/2401.250
50 SAT 24 Nov 21:00:56 21:04:08 23° 66° (ENE) 21:07:21 437.505
HUMSAT D 24 Nov 21:02:10 21:05:44 29° 68° (ENE) 21:09:18 437.325/437.525
VELOX 1 24 Nov 21:04:02 21:08:05 35° 68° (ENE) 21:12:09 145.980
ZACube-1 24 Nov 21:07:40 21:11:46 53° 73° (ENE) 21:15:51 437.345
STRAND 1 24 Nov 21:09:38 21:10:48 11° 306° (NW) 21:11:58 437.568
BEESAT 3 24 Nov 21:15:05 21:19:08 55° 310° (NW) 21:23:15 437.485
CUTE 1.7 & AOD 2 24 Nov 21:24:24 21:27:09 17° 269° (W) 21:29:55 437.475
AISAT 24 Nov 21:28:58 21:33:24 63° 73° (ENE) 21:37:50 437.250
BEESAT 2 24 Nov 21:29:28 21:33:27 45° 312° (NW) 21:37:30 435.950
DOVE 4 24 Nov 21:33:44 21:37:37 26° 265° (W) 21:41:21 437.250
GONETS M04 24 Nov 21:36:30 21:42:24 20° 284° (WNW) 21:48:17
TIGRISAT 24 Nov 21:40:02 21:42:23 14° 90° (E) 21:44:46 435.000
UKube-1 24 Nov 21:42:44 21:46:38 32° 263° (W) 21:50:34 .
FUNcube-1 24 Nov 21:43:04 21:47:16 64° 259° (W) 21:51:25 145.935
CUBEBUG 1 24 Nov 21:47:31 21:51:35 36° 69° (ENE) 21:55:38 437.445
NANOSAT C BR1 24 Nov 21:48:29 21:49:41 11° 88° (E) 21:50:53 145.865
UNISAT 6 24 Nov 21:52:12 21:55:25 19° 93° (E) 21:58:40 437.425
Oscar 11 24 Nov 21:55:49 21:59:11 22° 267° (W) 22:02:35 145.826/435.025
QB50P1 24 Nov 21:57:15 21:59:31 14° 90° (E) 22:01:46 145.935-145.965
AIST 2 24 Nov 21:57:35 22:01:41 47° 311° (NW) 22:05:52 435.215
CUBEBUG 2 24 Nov 22:03:13 22:06:58 29° 264° (W) 22:10:40 437.445
UWE-3 24 Nov 22:06:16 22:10:03 31° 264° (W) 22:13:48 435.000/436.395/437.385
HO-68 24 Nov 22:11:02 22:14:21 14° 274° (W) 22:17:40 435.675
BUGSAT 1 24 Nov 22:14:47 22:17:32 17° 92° (E) 22:20:15 437.445
DX 1 24 Nov 22:18:43 22:21:09 15° 269° (W) 22:23:36 434.975-435.025
ANTELSAT 24 Nov 22:20:08 22:24:15 36° 98° (E) 22:28:25 437.575/2403.000
POPSAT HIP 1 24 Nov 22:20:53 22:24:23 25° 95° (E) 22:27:52 437.405
CINEMA 3 24 Nov 22:21:43 22:23:58 14° 270° (W) 22:26:11 145.822/145.860
PCSat 24 Nov 22:22:32 22:25:56 17° 326° (NNW) 22:29:21 145.827
DELFI C3 24 Nov 22:33:17 22:33:53 10° 272° (W) 22:34:29 145.870
ESTCUBE 1 24 Nov 22:33:39 22:38:12 76° 257° (WSW) 22:42:47 437.505/2401.250
50 SAT 24 Nov 22:35:42 22:39:20 32° 263° (W) 22:42:58 437.505
HUMSAT D 24 Nov 22:38:02 22:41:33 26° 265° (W) 22:45:03 437.325/437.525
VELOX 1 24 Nov 22:41:00 22:44:44 26° 265° (W) 22:48:30 145.980
ZACube-1 24 Nov 22:46:05 22:48:29 15° 269° (W) 22:50:53 437.345
POLYITAN 1 24 Nov 22:53:08 22:57:19 56° 101° (E) 23:01:28 437.675
QB50P2 24 Nov 22:55:42 22:59:54 59° 101° (E) 23:04:05 145.880/145.840
BEESAT 3 24 Nov 22:56:43 22:58:18 12° 331° (NNW) 22:59:54 437.485
DUCHIFAT 1 24 Nov 23:02:39 23:06:52 70° 102° (ESE) 23:11:03 145.980
AISAT 24 Nov 23:08:00 23:10:27 14° 270° (W) 23:12:55 437.250
TISAT 1 24 Nov 23:11:04 23:15:19 71° 74° (ENE) 23:19:35 437.305
BEESAT 2 24 Nov 23:11:57 23:12:49 11° 333° (NNW) 23:13:42 435.950
RS-15 24 Nov 23:12:06 23:22:27 41° 32° (NNE) 23:33:08 29.354- 29.394
TIGRISAT 24 Nov 23:15:11 23:19:32 63° 287° (WNW) 23:23:58 435.000
SPROUT 24 Nov 23:16:41 23:20:59 70° 74° (ENE) 23:25:18 437.525
AUBIESAT-1 24 Nov 23:18:46 23:22:21 29° 60° (ENE) 23:26:11 437.475
ISS 24 Nov 23:21:23 23:23:49 19° 136° (SE) 23:26:16 145.825
NANOSAT C BR1 24 Nov 23:21:52 23:26:05 73° 286° (WNW) 23:30:17 145.865
ITUPSAT 1 24 Nov 23:22:35 23:25:49 18° 61° (ENE) 23:29:04 437.325
M-CUBED/EXP-1 PRIME 24 Nov 23:22:53 23:26:35 34° 62° (ENE) 23:30:37 437.505
CUBEBUG 1 24 Nov 23:24:23 23:28:02 25° 266° (W) 23:31:42 437.445
UNISAT 6 24 Nov 23:28:13 23:32:26 46° 289° (WNW) 23:36:44 437.425
QB50P1 24 Nov 23:31:38 23:35:47 57° 287° (WNW) 23:39:55 145.935-145.965
SWISSCUBE 24 Nov 23:33:20 23:37:10 24° 64° (ENE) 23:41:01 437.505
CUSAT 1 24 Nov 23:33:40 23:37:56 56° 78° (ENE) 23:43:39 437.405
AIST 2 24 Nov 23:40:04 23:41:24 11° 333° (NNW) 23:42:44 435.215
BUGSAT 1 24 Nov 23:49:23 23:53:17 43° 289° (WNW) 23:57:07 437.445
DANDE 24 Nov 23:53:46 23:57:55 72° 79° (E) 00:03:36 436.750
POPSAT HIP 1 24 Nov 23:56:35 00:00:20 32° 292° (WNW) 00:04:05 437.405
ANTELSAT 24 Nov 23:57:19 00:00:54 25° 294° (WNW) 00:04:33 437.575/2403.000
BEESAT 25 Nov 00:03:53 00:08:22 42° 69° (ENE) 00:12:53 436.000
POLYITAN 1 25 Nov 00:30:17 00:32:51 16° 298° (WNW) 00:35:26 437.675
QB50P2 25 Nov 00:32:57 00:35:23 15° 299° (WNW) 00:37:49 145.880/145.840
DUCHIFAT 1 25 Nov 00:40:12 00:42:12 13° 300° (WNW) 00:44:12 145.980
TISAT 1 25 Nov 00:50:07 00:51:39 12° 271° (W) 00:53:11 437.305
KKS-1 25 Nov 00:51:33 00:55:17 27° 66° (ENE) 00:59:02 437.445
MaSat-1 25 Nov 00:53:06 00:55:19 43° 245° (WSW) 00:57:36 437.345
AUBIESAT-1 25 Nov 00:53:39 00:57:16 31° 260° (W) 01:01:13 437.475
SPROUT 25 Nov 00:55:52 00:57:34 12° 271° (W) 00:59:16 437.525
ISS 25 Nov 00:56:54 01:00:10 69° 334° (NNW) 01:03:28 145.825
M-CUBED/EXP-1 PRIME 25 Nov 00:58:18 01:01:43 26° 262° (W) 01:05:24 437.505
ITUPSAT 1 25 Nov 00:58:29 01:03:15 62° 258° (WSW) 01:08:03 437.325
YUBILEINY 25 Nov 00:58:33 01:04:18 20° 76° (ENE) 01:10:02 435.215
Oscar 19 25 Nov 01:08:40 01:13:27 37° 97° (E) 01:18:12 437.125/150
SWISSCUBE 25 Nov 01:10:12 01:14:47 44° 261° (W) 01:19:24 437.505
CUSAT 1 25 Nov 01:17:53 01:20:59 18° 267° (W) 01:24:38 437.405
RS-15 25 Nov 01:24:46 01:35:58 80° 239° (WSW) 01:47:40 29.354- 29.394
DANDE 25 Nov 01:39:17 01:41:18 13° 269° (W) 01:43:32 436.750
BEESAT 25 Nov 01:42:30 01:46:22 24° 266° (W) 01:50:17 436.000
STARS 25 Nov 01:49:08 01:53:31 70° 74° (ENE) 01:57:55 437.465
ITAMSAT 1 25 Nov 01:58:58 02:03:53 41° 98° (E) 02:08:45 435.822/435.867
Gurwin Techsat 1B 25 Nov 02:24:06 02:29:09 42° 98° (E) 02:34:09 435.225
KKS-1 25 Nov 02:27:48 02:31:50 33° 263° (W) 02:35:53 437.445
AO-7 25 Nov 02:30:51 02:33:47 12° 84° (E) 02:36:42 29.400- 29.500
ISS 25 Nov 02:34:18 02:37:12 28° 353° (N) 02:40:07 145.825
Oscar 19 25 Nov 02:48:11 02:52:41 31° 295° (WNW) 02:57:12 437.125/150
YUBILEINY 25 Nov 02:50:59 02:59:49 88° 97° (E) 03:08:39 435.215
SO-50 25 Nov 02:53:10 02:55:40 15° 109° (ESE) 02:58:13 436.795
MOZHAYETS 4 25 Nov 03:24:02 03:28:02 30° 67° (ENE) 03:32:04
STARS 25 Nov 03:28:36 03:30:29 13° 271° (W) 03:32:23 437.465
HORYU 2 25 Nov 03:32:49 03:37:20 86° 104° (ESE) 03:41:50 437.375
ITAMSAT 1 25 Nov 03:38:49 03:43:12 29° 296° (WNW) 03:47:34 435.822/435.867
PCSat 25 Nov 03:38:52 03:43:38 30° 44° (NE) 03:48:22 145.827
RS-15 25 Nov 03:38:58 03:46:35 21° 260° (W) 03:54:27 29.354- 29.394
BEESAT 3 25 Nov 03:55:16 03:58:51 26° 42° (NE) 04:02:25 437.485
Gurwin Techsat 1B 25 Nov 04:04:25 04:08:56 29° 296° (WNW) 04:13:26 435.225
BEESAT 2 25 Nov 04:09:41 04:13:29 31° 44° (NE) 04:17:15 435.950
ISS 25 Nov 04:11:24 04:14:26 33° 14° (NNE) 04:17:29 145.825
AO-7 25 Nov 04:19:55 04:28:14 63° 104° (ESE) 04:36:30 29.400- 29.500
SO-50 25 Nov 04:31:03 04:35:35 74° 308° (NW) 04:40:18 436.795
JAS-2 25 Nov 04:33:33 04:39:54 33° 91° (E) 04:45:36 435.910
AIST 2 25 Nov 04:39:14 04:43:08 32° 44° (NE) 04:47:00 435.215
YUBILEINY 25 Nov 04:51:16 04:57:52 23° 300° (WNW) 05:04:29 435.215
PRISM 25 Nov 04:59:22 05:03:29 57° 72° (ENE) 05:07:39 437.425
MOZHAYETS 4 25 Nov 05:01:08 05:05:12 31° 265° (W) 05:09:20
CUBESAT XI-V 25 Nov 05:02:33 05:06:24 25° 65° (ENE) 05:10:16 437.345
STRAND 1 25 Nov 05:07:17 05:11:45 31° 65° (ENE) 05:16:13 437.568
HORYU 2 25 Nov 05:11:33 05:13:21 12° 302° (WNW) 05:15:09 437.375
CUTE-I 25 Nov 05:12:24 05:15:29 15° 89° (E) 05:18:33 437.470
PCSat 25 Nov 05:22:03 05:27:19 53° 244° (WSW) 05:32:33 145.827
BEESAT 3 25 Nov 05:33:16 05:37:15 42° 241° (WSW) 05:41:10 437.485
O/OREOS (USA 219) 25 Nov 05:47:45 05:51:58 41° 107° (ESE) 05:56:11 437.305
BEESAT 2 25 Nov 05:47:59 05:51:48 34° 243° (WSW) 05:55:33 435.950
ISS 25 Nov 05:47:59 05:51:16 67° 213° (SSW) 05:54:33 145.825
Cubesat XI-IV 25 Nov 06:09:10 06:14:21 49° 100° (E) 06:19:29 437.490
AO-7 25 Nov 06:13:16 06:20:34 35° 305° (NW) 06:27:53 29.400- 29.500
SO-50 25 Nov 06:14:00 06:16:59 17° 329° (NNW) 06:20:01 436.795
AIST 2 25 Nov 06:17:53 06:21:47 34° 243° (WSW) 06:25:38 435.215
JAS-2 25 Nov 06:18:15 06:25:15 52° 293° (WNW) 06:31:28 435.910
PRISM 25 Nov 06:37:07 06:39:25 14° 269° (W) 06:41:43 437.425
CUBESAT XI-V 25 Nov 06:39:13 06:43:39 40° 263° (W) 06:48:07 437.345
STRAND 1 25 Nov 06:46:03 06:50:50 38° 263° (W) 06:55:37 437.568
AIST 1 25 Nov 06:47:25 06:51:50 83° 81° (E) 06:56:11
GONETS M04 25 Nov 06:47:56 06:54:08 22° 77° (ENE) 07:00:21
CUTE-I 25 Nov 06:50:49 06:56:09 76° 287° (WNW) 07:01:26 437.470
